Find Starlink 30955

NORAD ID: 58417 Int'l Des: 2023-180 Owner: SPXS Country: US Constellation: starlink operational
LEOCIRCULAR

Live Position

Loading 3D Globe...

About Starlink 30955

Description loading...

Upcoming Passes

Passes for default location (London). Set your location on the main map for personalized predictions.

Altitude History

Loading altitude history...

Two-Line Element Set

1 58417U 23180R 26130.23675448 -.00001409 00000-0 -41717-4 0 9990
2 58417 43.0023 64.5386 0001038 271.8993 88.1739 15.27571182137042
Epoch: May 10, 2026 • Age: 13 hours

Current Status

Altitude 483.9 km
Velocity 7.62 km/s
Sub-Earth Point -7.08°S, 87.44°W
Launch Date Nov 22, 2023
Age 2.4 years
Type internet

Technical Details

Classification Payload
Mass 730.00 kg
Dry Mass 700.00 kg
Total Mass 730.00 kg
Length 0.30 m
Diameter 4.10 m
Span 29.00 m
Shape Box + pan
Manufacturer SPXS
Bus Type Starlink V2M
Phase Status In Orbit
Owner/State SPXS/US

Most Searched